[[{"header":{"parameterUnit":"m.s-1","parameterCategory":2,"la1":30.2991,"la2":30.254,"lo1":-89.0895,"lo2":-89.0444,"dy":0.0017,"dx":0.0017,"nx":28,"ny":28,"refTime":"2024-08-31T21:00:00:Z","depth":"0","parameterNumber":2,"parameterNumberName":"U-component_of_CURRENTS"},"data":[0,0,0,0,0,0,0,0,0,0,0,0,0,0,0,0,0,0,0,0,0,0,0,0,0,0,0,0,0,0,0,0,0,0,0,0,0,0,0,0,0,0,0,0,0,0,0,0,0,0,0,0,0,0,0,0,0,0,0.2384,0.2385,0,0.2501,0.2502,0.2503,0.257,0.257,0.2571,0.2571,0.2601,0.2601,0.2602,0,0,0,0,0,0,0,0,0,0,0,0,0,0.222,0.2222,0.2384,0.2385,0.2387,0.2501,0.2502,0.2504,0.257,0.257,0.2571,0.2571,0.2601,0.2601,0.2602,0,0,0,0,0,0,0,0,0,0,0,0,0,0.2308,0.2223,0.2383,0.2435,0.2441,0.25,0.2502,0.2504,0.257,0.257,0.2571,0.2571,0.2601,0.2601,0.2602,0.2596,0,0,0.2604,0.2604,0,0,0,0,0,0,0,0,0.2303,0.2314,0.2426,0.2431,0.2438,0.2523,0.2456,0.2531,0.257,0.2519,0.2571,0.2572,0.2567,0.2571,0.2591,0.2597,0.2598,0.2604,0.2605,0.2605,0.2605,0,0,0,0,0,0,0,0.2297,0.2309,0.2429,0.2427,0.2435,0.2453,0.2466,0.2471,0.2536,0.2524,0.2529,0.2544,0.257,0.259,0.2592,0.2599,0.2604,0.2605,0.2605,0.2606,0.263,0.263,0,0,0,0,0,0,0.2285,0.2303,0.2425,0.2432,0.2372,0.2455,0.247,0.2494,0.2538,0.2546,0.2544,0.2547,0.2589,0.2591,0.2593,0.2593,0.2605,0.2606,0.2606,0.263,0.263,0.263,0,0,0,0,0,0,0.2281,0.2295,0.242,0.2371,0.2388,0.2458,0.2484,0.2496,0.2515,0.2555,0.2561,0.2551,0.2589,0.2592,0.2616,0.2594,0.2606,0.2607,0.263,0.263,0.263,0.2589,0,0,0,0,0,0,0.2276,0.2293,0.2297,0.237,0.2391,0.2451,0.2484,0.2498,0.2524,0.253,0.2562,0.2566,0.259,0.2616,0.2617,0.2595,0.2607,0.2629,0.263,0.263,0.259,0.2588,0.2586,0,0,0,0,0,0.227,0.2274,0.2297,0.2312,0.2398,0.2451,0.2462,0.2512,0.2524,0.2531,0.2568,0.2565,0.2619,0.2617,0.2619,0.2596,0.2629,0.263,0.263,0.2591,0.2588,0.2586,0,0,0,0,0,0,0.2199,0.2284,0.231,0.2339,0.2389,0.2462,0.2467,0.2504,0.2539,0.2536,0.2574,0.2582,0.2598,0.2605,0.2602,0.2607,0.262,0.2621,0.2589,0.2587,0.2585,0.2563,0.2608,0,0,0,0,0,0.2187,0.2216,0.2294,0.2312,0.2332,0.2396,0.2419,0.2456,0.2502,0.2518,0.2547,0.2573,0.2601,0.2601,0.2629,0.2623,0.2623,0.261,0.2607,0.2605,0.2591,0.2591,0.2586,0.2632,0.2632,0.2632,0,0,0.2163,0.2213,0.2228,0.2299,0.2335,0.2367,0.241,0.244,0.2464,0.2511,0.2536,0.257,0.2604,0.2617,0.262,0.2616,0.2594,0.2606,0.2604,0.259,0.2591,0.2586,0.2582,0.2632,0.2632,0.2632,0,0,0.2136,0.2171,0.219,0.223,0.2289,0.233,0.2335,0.2404,0.2428,0.2463,0.2508,0.253,0.2564,0.2588,0.2603,0.2599,0.2594,0.2602,0.2557,0.2557,0.2552,0.2548,0.254,0.2536,0.2587,0.2587,0.2587,0,0.2097,0.2148,0.2199,0.2228,0.2257,0.2309,0.2333,0.2362,0.2432,0.2443,0.246,0.2521,0.2548,0.2564,0.2573,0.259,0.259,0.2561,0.2552,0.2548,0.2545,0.2537,0.2533,0.2585,0.2585,0.2585,0.2585,0,0.2105,0.2134,0.214,0.2201,0.2232,0.2255,0.231,0.2328,0.2357,0.2391,0.2415,0.2462,0.2494,0.2505,0.2539,0.2529,0.2537,0.2559,0.2551,0.2537,0.2531,0.2527,0.2582,0.2583,0.2583,0.2584,0,0,0.2051,0.2131,0.2132,0.2155,0.2222,0.2247,0.2268,0.2309,0.2311,0.2352,0.2355,0.2406,0.2422,0.2441,0.2477,0.2471,0.2456,0.2497,0.2498,0.2477,0.2447,0.2391,0.2381,0.2476,0.2475,0.2474,0.2451,0,0.2042,0.2087,0.2133,0.2157,0.2185,0.223,0.2246,0.2279,0.2304,0.2312,0.2336,0.2354,0.24,0.2408,0.2413,0.2455,0.2445,0.246,0.2475,0.2474,0.2416,0.2374,0.2264,0.2228,0.2447,0.2446,0.2446,0,0.2051,0.208,0.2111,0.215,0.2161,0.2172,0.2199,0.2222,0.2239,0.2254,0.2265,0.2291,0.23,0.2335,0.2366,0.2374,0.2403,0.2424,0.2424,0.2378,0.241,0.228,0.2213,0.2046,0.244,0.2441,0.2441,0,0.2025,0.2065,0.2087,0.2106,0.2155,0.2154,0.2167,0.2195,0.2197,0.2205,0.2192,0.2223,0.2219,0.2262,0.2315,0.234,0.2334,0.2378,0.2348,0.2345,0.2255,0.2244,0.2014,0.2381,0.2382,0.2382,0.2382,0,0.2024,0.2037,0.2065,0.208,0.2076,0.2115,0.2102,0.2126,0.2125,0.2103,0.2148,0.2125,0.2199,0.2211,0.2277,0.2285,0.2305,0.2318,0.2325,0.2238,0.2227,0.2084,0.2042,0.2381,0.2381,0.2381,0.2381,0,0.201,0.2039,0.2059,0.2078,0.2074,0.2069,0.2058,0.2039,0.2051,0.2019,0.2011,0.2035,0.2049,0.2117,0.2173,0.2211,0.2149,0.2247,0.2132,0.2125,0.194,0.1904,0.1729,0.1703,0.22,0.2198,0.2197,0,0.2008,0.2019,0.204,0.203,0.2032,0.2015,0.1995,0.2006,0.1983,0.1958,0.1929,0.1925,0.1925,0.1974,0.205,0.2121,0.205,0.2026,0.2052,0.1876,0.1842,0.1823,0.1815,0.1923,0.1919,0.1916,0.1914,0,0.1987,0.1999,0.2009,0.1991,0.1966,0.1936,0.1902,0.1876,0.187,0.1843,0.1803,0.1796,0.1837,0.1842,0.1909,0.1946,0.1863,0.1967,0.1808,0.1604,0.1544,0.1541,0.1995,0.1888,0.189,0.1892,0.1894,0.1895,0.1955,0.1947,0.1953,0.1926,0.1904,0.1843,0.1777,0.175,0.1704,0.1625,0.1677,0.1622,0.1627,0.172,0.1735,0.1598,0.1714,0.1516,0.149,0.1489,0.1429,0.1813,0.1704,0.1706,0.1707,0.1708,0.1709,0,0.1886,0.1882,0.1869,0.1833,0.1771,0.1773,0.1696,0.1611,0.1525,0.1507,0.1472,0.1399,0.1344,0.133,0.124,0.1123,0.1157,0.1015,0.0933,0.0962,0.1295,0.1243,0.0997,0.0997,0.0997,0.0998,0.0998,0.0998,0.185,0.1816,0.1807,0.17,0.1655,0.1522,0.1449,0.1363,0.1325,0.1204,0.1136,0.1138,0.1029,0.0781,0.0579,0.0581,0.0517,0.0474,0.0518,0.068,0.0724,0.0766,0.0701,0.0345,0.0345,0.0164,0.0162,0.016]},{"header":{"parameterUnit":"m.s-1","parameterCategory":2,"la1":30.2991,"la2":30.254,"lo1":-89.0895,"lo2":-89.0444,"dy":0.0017,"dx":0.0017,"nx":28,"ny":28,"refTime":"2024-08-31T21:00:00:Z","depth":"0","parameterNumber":3,"parameterNumberName":"V-component_of_CURRENTS"},"data":[0,0,0,0,0,0,0,0,0,0,0,0,0,0,0,0,0,0,0,0,0,0,0,0,0,0,0,0,0,0,0,0,0,0,0,0,0,0,0,0,0,0,0,0,0,0,0,0,0,0,0,0,0,0,0,0,0,0,-0.0914,-0.0915,0,-0.0976,-0.0977,-0.0977,-0.0996,-0.0996,-0.0996,-0.0996,-0.0996,-0.0996,-0.0996,0,0,0,0,0,0,0,0,0,0,0,0,0,-0.075,-0.0753,-0.0914,-0.0915,-0.0916,-0.0976,-0.0977,-0.0977,-0.0996,-0.0996,-0.0996,-0.0996,-0.0996,-0.0996,-0.0996,0,0,0,0,0,0,0,0,0,0,0,0,0,-0.0815,-0.0754,-0.0914,-0.0935,-0.0938,-0.0976,-0.0977,-0.0977,-0.0996,-0.0996,-0.0996,-0.0996,-0.0996,-0.0996,-0.0996,-0.0996,0,0,-0.0996,-0.0996,0,0,0,0,0,0,0,0,-0.0811,-0.082,-0.0931,-0.0934,-0.0937,-0.0981,-0.0919,-0.0982,-0.0996,-0.097,-0.0996,-0.0996,-0.0988,-0.0988,-0.0996,-0.0996,-0.0996,-0.0996,-0.0996,-0.0996,-0.0996,0,0,0,0,0,0,0,-0.0807,-0.0817,-0.0935,-0.0932,-0.0936,-0.0921,-0.093,-0.0931,-0.0974,-0.0972,-0.0975,-0.0987,-0.0988,-0.0996,-0.0996,-0.0996,-0.0996,-0.0996,-0.0996,-0.0996,-0.0977,-0.0977,0,0,0,0,0,0,-0.081,-0.0814,-0.0933,-0.0937,-0.0877,-0.0924,-0.0935,-0.0964,-0.0976,-0.0979,-0.0987,-0.0988,-0.0996,-0.0996,-0.0996,-0.0993,-0.0996,-0.0996,-0.0996,-0.0978,-0.0977,-0.0976,0,0,0,0,0,0,-0.0806,-0.0821,-0.0931,-0.0878,-0.0892,-0.0928,-0.096,-0.0965,-0.0974,-0.0988,-0.0989,-0.0991,-0.0996,-0.0996,-0.0995,-0.0993,-0.0996,-0.0996,-0.0978,-0.0977,-0.0977,-0.0989,0,0,0,0,0,0,-0.0802,-0.0819,-0.0831,-0.0879,-0.0895,-0.0953,-0.0961,-0.0967,-0.0984,-0.0985,-0.0992,-0.0992,-0.0996,-0.0995,-0.0995,-0.0993,-0.0996,-0.0979,-0.0978,-0.0977,-0.0989,-0.0989,-0.0988,0,0,0,0,0,-0.0796,-0.0813,-0.0832,-0.0845,-0.0914,-0.0954,-0.096,-0.0982,-0.0984,-0.0989,-0.0992,-0.0992,-0.0989,-0.0995,-0.0995,-0.0993,-0.0979,-0.0978,-0.0977,-0.0989,-0.0989,-0.0988,0,0,0,0,0,0,-0.0744,-0.0819,-0.0839,-0.0878,-0.0914,-0.0958,-0.0963,-0.0981,-0.0989,-0.0984,-0.0992,-0.0992,-0.0989,-0.0986,-0.0993,-0.0982,-0.0982,-0.098,-0.0991,-0.099,-0.099,-0.0987,-0.0996,0,0,0,0,0,-0.0741,-0.0776,-0.0838,-0.0866,-0.0885,-0.0923,-0.0938,-0.0957,-0.0977,-0.0981,-0.0989,-0.0987,-0.0985,-0.0984,-0.0982,-0.098,-0.0957,-0.0975,-0.0974,-0.0974,-0.097,-0.0929,-0.0925,-0.0973,-0.0973,-0.0973,0,0,-0.0727,-0.0773,-0.0791,-0.0857,-0.0883,-0.0917,-0.0931,-0.0956,-0.0976,-0.0978,-0.0991,-0.0987,-0.0983,-0.0982,-0.0979,-0.098,-0.0948,-0.0973,-0.0973,-0.0969,-0.0928,-0.0923,-0.0919,-0.0972,-0.0972,-0.0972,0,0,-0.0719,-0.0759,-0.0787,-0.0821,-0.0871,-0.09,-0.0909,-0.0954,-0.0963,-0.098,-0.098,-0.0974,-0.098,-0.0975,-0.0973,-0.0966,-0.0946,-0.0964,-0.0963,-0.0923,-0.0919,-0.0915,-0.0878,-0.0871,-0.0964,-0.0964,-0.0964,0,-0.0695,-0.0753,-0.0795,-0.0831,-0.0858,-0.0894,-0.0924,-0.0941,-0.0978,-0.0977,-0.0982,-0.0975,-0.0975,-0.0966,-0.0967,-0.0966,-0.0939,-0.0969,-0.0923,-0.0919,-0.0914,-0.0877,-0.0869,-0.0965,-0.0965,-0.0965,-0.0965,0,-0.0721,-0.076,-0.0774,-0.0841,-0.0868,-0.0897,-0.0939,-0.0952,-0.0965,-0.0979,-0.0971,-0.097,-0.0964,-0.0963,-0.0967,-0.0939,-0.0929,-0.0928,-0.0927,-0.091,-0.0872,-0.0864,-0.0966,-0.0965,-0.0965,-0.0965,0,0,-0.0696,-0.0777,-0.0783,-0.0807,-0.0878,-0.0898,-0.0927,-0.0958,-0.0959,-0.0975,-0.0966,-0.0968,-0.0959,-0.0955,-0.0952,-0.0925,-0.0878,-0.0916,-0.0914,-0.0884,-0.0787,-0.0743,-0.0729,-0.0868,-0.0866,-0.0865,-0.0773,0,-0.0706,-0.0758,-0.0805,-0.0845,-0.0875,-0.0914,-0.0935,-0.0957,-0.097,-0.0965,-0.0953,-0.0941,-0.0958,-0.0946,-0.0925,-0.0887,-0.0855,-0.0903,-0.0804,-0.0801,-0.0766,-0.0717,-0.0635,-0.0543,-0.0764,-0.0763,-0.0762,0,-0.0728,-0.0761,-0.0797,-0.0845,-0.086,-0.0881,-0.0908,-0.0931,-0.0935,-0.0938,-0.093,-0.0923,-0.0894,-0.0902,-0.0834,-0.0863,-0.0826,-0.0797,-0.0792,-0.0739,-0.0739,-0.0594,-0.0518,-0.0497,-0.0748,-0.0749,-0.075,0,-0.069,-0.0756,-0.0776,-0.0797,-0.0855,-0.0861,-0.0886,-0.091,-0.0908,-0.0908,-0.0889,-0.0878,-0.0842,-0.0808,-0.0766,-0.0792,-0.0674,-0.07,-0.0625,-0.0622,-0.0526,-0.0516,-0.0419,-0.0637,-0.0637,-0.0637,-0.0637,0,-0.0692,-0.0707,-0.0752,-0.0761,-0.0766,-0.0822,-0.082,-0.0843,-0.0851,-0.0823,-0.0858,-0.0816,-0.0812,-0.0756,-0.0735,-0.0642,-0.0647,-0.0605,-0.0586,-0.0528,-0.052,-0.0477,-0.049,-0.0634,-0.0634,-0.0635,-0.0636,0,-0.0644,-0.0685,-0.0697,-0.0737,-0.0747,-0.074,-0.0769,-0.076,-0.0786,-0.0745,-0.0735,-0.0738,-0.0672,-0.0659,-0.0587,-0.0577,-0.0467,-0.0476,-0.0412,-0.0387,-0.0316,-0.0332,-0.0202,-0.0178,-0.038,-0.0378,-0.0377,0,-0.0625,-0.0626,-0.0646,-0.0636,-0.0648,-0.0656,-0.0656,-0.0708,-0.0698,-0.0681,-0.0641,-0.0592,-0.0528,-0.0428,-0.0401,-0.0341,-0.0357,-0.0248,-0.0288,-0.0278,-0.0282,-0.03,-0.0292,-0.0165,-0.0162,-0.0159,-0.0157,0,-0.0566,-0.0563,-0.0555,-0.0536,-0.053,-0.0533,-0.054,-0.0528,-0.0565,-0.0528,-0.046,-0.0407,-0.0331,-0.0227,-0.0181,-0.016,-0.0204,-0.0194,-0.0186,-0.0097,-0.0105,-0.0084,-0.0275,-0.0134,-0.0137,-0.0138,-0.014,-0.014,-0.0495,-0.046,-0.0441,-0.0413,-0.0409,-0.0397,-0.0379,-0.0378,-0.0341,-0.0281,-0.0278,-0.0169,-0.0087,-0.0007,-0.0004,0.0044,-0.0019,0.0059,0.0042,0.0023,0.0045,-0.0101,0.0055,0.0054,0.0053,0.0052,0.0052,0,-0.0414,-0.0371,-0.0327,-0.0296,-0.026,-0.0296,-0.0286,-0.0259,-0.0186,-0.0133,-0.0056,0.0091,0.0214,0.0227,0.0291,0.0291,0.0254,0.0275,0.0269,0.0265,0.0156,0.0162,0.0352,0.0352,0.0352,0.0352,0.0352,0.0352,-0.0364,-0.0292,-0.0261,-0.0161,-0.014,-0.0101,-0.0086,-0.005,-0.0018,0.0094,0.0179,0.0222,0.0274,0.0416,0.0462,0.0446,0.0422,0.0445,0.0389,0.0305,0.0283,0.0261,0.0265,0.0474,0.0474,0.0531,0.0532,0.0532]}],[{"header":{"parameterUnit":"m.s-1","parameterCategory":2,"la1":30.2991,"la2":30.254,"lo1":-89.0895,"lo2":-89.0444,"dy":0.0017,"dx":0.0017,"nx":28,"ny":28,"refTime":"2024-08-31T21:00:00:Z","depth":"2","parameterNumber":2,"parameterNumberName":"U-component_of_CURRENTS"},"data":[0,0,0,0,0,0,0,0,0,0,0,0,0,0,0,0,0,0,0,0,0,0,0,0,0,0,0,0,0,0,0,0,0,0,0,0,0,0,0,0,0,0,0,0,0,0,0,0,0,0,0,0,0,0,0,0,0,0,0.1164,0.1164,0,0.1156,0.1156,0.1156,0.1198,0.1199,0.12,0.1201,0.1235,0.1235,0.1235,0,0,0,0,0,0,0,0,0,0,0,0,0,0.1172,0.1172,0.1164,0.1164,0.1163,0.1156,0.1156,0.1156,0.1198,0.1199,0.12,0.1202,0.1235,0.1235,0.1235,0,0,0,0,0,0,0,0,0,0,0,0,0,0.1167,0.1172,0.1164,0.1183,0.1184,0.1156,0.1156,0.1156,0.1197,0.1199,0.1201,0.1202,0.1235,0.1235,0.1235,0.12,0,0,0.1234,0.1234,0,0,0,0,0,0,0,0,0.1168,0.1167,0.118,0.1181,0.1183,0.1179,0.1172,0.1173,0.1197,0.1193,0.1201,0.1203,0.1219,0.122,0.1215,0.1202,0.1203,0.1234,0.1234,0.1234,0.1234,0,0,0,0,0,0,0,0.1168,0.1167,0.1162,0.118,0.1182,0.1177,0.1179,0.1172,0.1198,0.1193,0.1196,0.1194,0.122,0.1215,0.1216,0.1203,0.1234,0.1234,0.1234,0.1234,0.1247,0.1247,0,0,0,0,0,0,0.1168,0.1168,0.1162,0.1161,0.1179,0.1176,0.1178,0.1179,0.1197,0.1201,0.1192,0.1196,0.1215,0.1217,0.1218,0.1257,0.1234,0.1234,0.1234,0.1246,0.1247,0.1247,0,0,0,0,0,0,0.1168,0.1167,0.1162,0.1164,0.1163,0.1174,0.1175,0.1178,0.1203,0.1196,0.1201,0.1218,0.1216,0.1218,0.1235,0.1256,0.1234,0.1234,0.1246,0.1246,0.1247,0.1285,0,0,0,0,0,0,0.1168,0.1168,0.1177,0.1164,0.1163,0.1171,0.1174,0.1177,0.1196,0.1202,0.1218,0.1221,0.1218,0.1236,0.1235,0.1256,0.1234,0.1245,0.1246,0.1247,0.1284,0.1287,0.1291,0,0,0,0,0,0.1169,0.1172,0.1177,0.1177,0.1172,0.1172,0.1172,0.1185,0.1196,0.1212,0.122,0.1222,0.1241,0.1236,0.1235,0.1256,0.1245,0.1246,0.1247,0.1282,0.1287,0.129,0,0,0,0,0,0,0.1177,0.1176,0.1182,0.1185,0.119,0.1179,0.1191,0.1197,0.1213,0.1226,0.1223,0.1226,0.1248,0.1243,0.1237,0.1261,0.1245,0.1246,0.1272,0.1276,0.128,0.1287,0.1233,0,0,0,0,0,0.1182,0.1191,0.1186,0.1193,0.1197,0.1198,0.1202,0.1213,0.1219,0.1229,0.124,0.1246,0.1244,0.1256,0.1254,0.1265,0.1283,0.1279,0.1283,0.1286,0.129,0.1326,0.1334,0.1251,0.1251,0.1251,0,0,0.1187,0.1187,0.1193,0.1196,0.1201,0.1207,0.1207,0.1224,0.1233,0.1228,0.1256,0.1259,0.1248,0.1263,0.1273,0.1268,0.1323,0.1287,0.129,0.1293,0.1328,0.1336,0.1343,0.1251,0.1251,0.1251,0,0,0.1196,0.1204,0.1215,0.1222,0.1234,0.1231,0.1243,0.1252,0.1266,0.1283,0.1279,0.1299,0.1302,0.1302,0.1297,0.1318,0.1336,0.132,0.135,0.1385,0.1392,0.1399,0.1453,0.1465,0.1327,0.1327,0.1327,0,0.1206,0.1215,0.1219,0.1229,0.1237,0.1246,0.1259,0.1263,0.128,0.129,0.1305,0.1316,0.1319,0.1321,0.1335,0.1328,0.1357,0.1335,0.1391,0.1397,0.1404,0.1458,0.147,0.1329,0.1329,0.1329,0.1329,0,0.1215,0.1233,0.1241,0.1257,0.1264,0.1281,0.1283,0.1304,0.1324,0.1328,0.1354,0.1358,0.137,0.1372,0.1362,0.1399,0.141,0.1389,0.1383,0.1415,0.147,0.1482,0.1332,0.1331,0.1331,0.133,0,0,0.1207,0.1243,0.1248,0.1269,0.1285,0.1292,0.1307,0.132,0.1337,0.1364,0.1386,0.1395,0.1413,0.1409,0.1405,0.1436,0.1516,0.144,0.1441,0.1501,0.1618,0.1525,0.153,0.1509,0.1511,0.1512,0.1648,0,0.1218,0.1254,0.126,0.1293,0.1312,0.1323,0.1334,0.1349,0.1365,0.1391,0.1401,0.1421,0.1419,0.1438,0.147,0.1489,0.1546,0.1483,0.1573,0.1576,0.1494,0.1538,0.131,0.1402,0.1659,0.1661,0.1662,0,0.1217,0.1246,0.1287,0.1325,0.1333,0.1351,0.1378,0.1389,0.1409,0.1426,0.145,0.1456,0.1495,0.1495,0.1577,0.1539,0.1596,0.162,0.1625,0.153,0.1503,0.1406,0.1413,0.1682,0.168,0.1679,0.1678,0,0.1211,0.1259,0.1299,0.1313,0.1353,0.1374,0.1392,0.141,0.142,0.1454,0.1471,0.1509,0.1535,0.1597,0.1642,0.1628,0.1734,0.1719,0.1698,0.1694,0.151,0.1485,0.1809,0.1809,0.1809,0.1808,0.1808,0,0.1205,0.1235,0.131,0.133,0.1374,0.1394,0.1428,0.1445,0.1467,0.1477,0.1498,0.1512,0.1564,0.1612,0.1668,0.1709,0.1765,0.1717,0.1719,0.1518,0.1493,0.1732,0.1721,0.1813,0.1812,0.1811,0.181,0,0.1169,0.1228,0.1277,0.1346,0.1374,0.1402,0.1447,0.146,0.1486,0.15,0.1513,0.1537,0.1598,0.1648,0.1744,0.1729,0.1784,0.1796,0.1562,0.1532,0.1729,0.1718,0.1799,0.1797,0.1795,0.1794,0.1792,0,0.1146,0.1176,0.1282,0.132,0.1354,0.1405,0.1432,0.1471,0.1476,0.1505,0.1505,0.1562,0.1575,0.166,0.1632,0.1696,0.1794,0.1537,0.1455,0.1732,0.1727,0.1719,0.1712,0.1254,0.1248,0.1244,0.124,0,0.1086,0.1144,0.1184,0.1277,0.1333,0.1376,0.1418,0.1425,0.1455,0.146,0.147,0.1484,0.1513,0.141,0.1448,0.1468,0.1493,0.1445,0.1799,0.1272,0.1222,0.1215,0.1225,0.1199,0.1203,0.1206,0.1208,0.121,0.1036,0.1056,0.1134,0.1215,0.128,0.1321,0.1318,0.134,0.1339,0.1284,0.1365,0.127,0.1239,0.1137,0.1148,0.1146,0.1286,0.1214,0.1226,0.1244,0.1136,0.1084,0.1018,0.1021,0.1023,0.1025,0.1027,0,0.0947,0.0994,0.1062,0.1145,0.1179,0.1256,0.128,0.1233,0.1191,0.1135,0.1105,0.0877,0.0785,0.0814,0.0708,0.0738,0.0738,0.0744,0.0694,0.0732,0.0768,0.0635,0.0384,0.0383,0.0382,0.0381,0,0,0.0903,0.0929,0.0981,0.103,0.109,0.1098,0.1101,0.1033,0.0964,0.08,0.0666,0.0649,0.0676,0.0448,0.0466,0.0403,0.0579,0.0395,0.0894,0.0867,0.0901,0.1006,0.084,0,0,0,0,0]},{"header":{"parameterUnit":"m.s-1","parameterCategory":2,"la1":30.2991,"la2":30.254,"lo1":-89.0895,"lo2":-89.0444,"dy":0.0017,"dx":0.0017,"nx":28,"ny":28,"refTime":"2024-08-31T21:00:00:Z","depth":"2","parameterNumber":3,"parameterNumberName":"V-component_of_CURRENTS"},"data":[0,0,0,0,0,0,0,0,0,0,0,0,0,0,0,0,0,0,0,0,0,0,0,0,0,0,0,0,0,0,0,0,0,0,0,0,0,0,0,0,0,0,0,0,0,0,0,0,0,0,0,0,0,0,0,0,0,0,-0.0022,-0.0023,0,-0.0092,-0.0092,-0.0093,-0.0152,-0.0154,-0.0155,-0.0156,-0.0247,-0.0249,-0.025,0,0,0,0,0,0,0,0,0,0,0,0,0,0.0081,0.008,-0.0022,-0.0023,-0.0024,-0.0092,-0.0092,-0.0093,-0.0152,-0.0154,-0.0155,-0.0156,-0.0247,-0.0248,-0.025,0,0,0,0,0,0,0,0,0,0,0,0,0,0.003,0.0079,-0.0022,-0.0066,-0.0071,-0.0092,-0.0092,-0.0093,-0.0152,-0.0154,-0.0155,-0.0157,-0.0246,-0.0248,-0.025,-0.0231,0,0,-0.0257,-0.0258,0,0,0,0,0,0,0,0,0.0033,0.0027,-0.0058,-0.0063,-0.0068,-0.0119,-0.009,-0.0142,-0.0152,-0.0116,-0.0156,-0.0158,-0.0208,-0.0213,-0.0216,-0.0236,-0.024,-0.0257,-0.0259,-0.0259,-0.026,0,0,0,0,0,0,0,0.0037,0.003,-0.0045,-0.0059,-0.0066,-0.0075,-0.0084,-0.01,-0.0149,-0.0119,-0.0125,-0.014,-0.0211,-0.0214,-0.0219,-0.0241,-0.0257,-0.0259,-0.026,-0.0261,-0.0331,-0.0331,0,0,0,0,0,0,0.0037,0.0033,-0.0043,-0.0048,-0.0025,-0.0076,-0.0085,-0.0097,-0.0149,-0.0159,-0.0138,-0.0142,-0.021,-0.0216,-0.0223,-0.026,-0.0259,-0.0261,-0.0263,-0.033,-0.0331,-0.0331,0,0,0,0,0,0,0.004,0.0031,-0.004,-0.0012,-0.0023,-0.0077,-0.0089,-0.0098,-0.0126,-0.0164,-0.0174,-0.0161,-0.0211,-0.022,-0.0252,-0.0262,-0.0262,-0.0264,-0.0329,-0.033,-0.0331,-0.0297,0,0,0,0,0,0,0.0043,0.0033,0.0028,-0.0012,-0.0025,-0.006,-0.0089,-0.0098,-0.0133,-0.014,-0.0185,-0.0194,-0.0213,-0.0248,-0.0254,-0.0265,-0.0266,-0.0329,-0.033,-0.0331,-0.0298,-0.0297,-0.0296,0,0,0,0,0,0.0047,0.0054,0.0029,0.0019,-0.003,-0.0061,-0.0067,-0.0108,-0.0133,-0.0139,-0.0174,-0.0194,-0.026,-0.025,-0.0257,-0.0268,-0.0328,-0.033,-0.0331,-0.0298,-0.0297,-0.0296,0,0,0,0,0,0,0.0091,0.0046,0.0018,0.0008,-0.0032,-0.0073,-0.0081,-0.0114,-0.0145,-0.0159,-0.0193,-0.0203,-0.0235,-0.0257,-0.0246,-0.0293,-0.03,-0.0303,-0.0274,-0.0273,-0.0272,-0.0248,-0.0268,0,0,0,0,0,0.0099,0.0095,0.0039,0.003,0.001,-0.0039,-0.0058,-0.0093,-0.0129,-0.0146,-0.0179,-0.0216,-0.0239,-0.0261,-0.0283,-0.0305,-0.0297,-0.0321,-0.032,-0.0319,-0.0305,-0.03,-0.0296,-0.0335,-0.0335,-0.0335,0,0,0.0111,0.0088,0.0082,0.004,0.0008,-0.0015,-0.0053,-0.0089,-0.0109,-0.0149,-0.018,-0.0211,-0.0244,-0.0268,-0.0286,-0.0292,-0.0304,-0.0321,-0.0319,-0.0306,-0.03,-0.0296,-0.0292,-0.0336,-0.0336,-0.0336,0,0,0.0142,0.0111,0.0115,0.0084,0.003,-0.0002,-0.0018,-0.0075,-0.0101,-0.0137,-0.0169,-0.0197,-0.0247,-0.0261,-0.0276,-0.0283,-0.0295,-0.0312,-0.0292,-0.0287,-0.0283,-0.0279,-0.0255,-0.0249,-0.0317,-0.0317,-0.0317,0,0.015,0.0145,0.0111,0.01,0.0072,0.0002,-0.0015,-0.0043,-0.0104,-0.012,-0.0148,-0.0204,-0.0235,-0.0247,-0.0259,-0.0278,-0.0277,-0.029,-0.0283,-0.0279,-0.0276,-0.0252,-0.0246,-0.0315,-0.0315,-0.0315,-0.0316,0,0.0182,0.0165,0.0163,0.0126,0.0098,0.0069,0.0013,-0.0019,-0.0069,-0.0099,-0.0133,-0.0167,-0.0203,-0.0221,-0.0246,-0.0247,-0.0253,-0.0275,-0.0277,-0.0269,-0.0245,-0.024,-0.0313,-0.0314,-0.0314,-0.0314,0,0,0.0213,0.0189,0.0181,0.0162,0.01,0.0076,0.0047,0.0001,-0.002,-0.007,-0.0084,-0.0126,-0.0157,-0.0175,-0.0208,-0.0206,-0.0185,-0.0238,-0.0239,-0.0199,-0.0164,-0.0104,-0.0092,-0.0214,-0.0213,-0.0213,-0.0152,0,0.0232,0.0227,0.0207,0.018,0.0161,0.0099,0.0079,0.0032,-0.0013,-0.0039,-0.007,-0.0101,-0.0137,-0.0165,-0.0165,-0.0185,-0.0171,-0.0198,-0.019,-0.0189,-0.0125,-0.0084,-0.0082,-0.0022,-0.0147,-0.0146,-0.0145,0,0.0261,0.0248,0.0236,0.0194,0.0179,0.0153,0.0095,0.0067,0.0024,-0.0007,-0.0035,-0.0069,-0.0079,-0.0114,-0.0112,-0.0135,-0.0145,-0.0148,-0.0147,-0.0095,-0.0118,-0.0054,-0.0007,-0.0136,-0.0137,-0.0137,-0.0138,0,0.0296,0.0264,0.0254,0.0236,0.0184,0.016,0.0121,0.0071,0.0045,0.0008,-0.0011,-0.0027,-0.0049,-0.0054,-0.0076,-0.0104,-0.0056,-0.0096,-0.0036,-0.0032,-0.0026,-0.0022,-0.0074,-0.0074,-0.0074,-0.0074,-0.0074,0,0.0326,0.0313,0.0263,0.0253,0.0224,0.0176,0.0138,0.0105,0.0061,0.0042,-0.0,-0.0003,-0.0041,-0.0031,-0.0045,-0.0007,-0.0032,-0.0005,-0.0005,-0.0014,-0.001,-0.0115,-0.0121,-0.0072,-0.0072,-0.0073,-0.0073,0,0.0373,0.0344,0.0325,0.0267,0.0242,0.0216,0.0138,0.0117,0.0071,0.0048,0.0035,0.0013,0.0036,0.0032,0.0038,0.0038,0.0065,0.0082,0.0089,0.0091,0.0078,0.0073,0.0163,0.0166,0.0168,0.017,0.0172,0,0.0399,0.0396,0.0338,0.0315,0.0283,0.0227,0.019,0.0125,0.0102,0.0066,0.0071,0.0081,0.0132,0.0191,0.0182,0.0219,0.0154,0.0222,0.018,0.0116,0.0106,0.0097,0.0089,0.0196,0.0198,0.0199,0.02,0,0.0439,0.0419,0.0401,0.0354,0.0309,0.0265,0.0206,0.0196,0.0132,0.0137,0.0162,0.0212,0.0258,0.0312,0.0349,0.0346,0.022,0.0255,0.0185,0.0143,0.0154,0.0142,0.0131,0.0213,0.0212,0.0211,0.021,0.0209,0.0458,0.0458,0.0426,0.0386,0.0342,0.0308,0.0282,0.0259,0.0259,0.0274,0.0288,0.0366,0.0383,0.0476,0.0442,0.0355,0.0368,0.0321,0.0314,0.0305,0.0306,0.032,0.0412,0.0412,0.0412,0.0412,0.0412,0,0.0467,0.0467,0.0449,0.0402,0.0379,0.0331,0.0295,0.0291,0.0326,0.0371,0.0431,0.0481,0.056,0.0512,0.0424,0.0414,0.0355,0.0366,0.0285,0.0276,0.0268,0.0261,0.0358,0.0357,0.0356,0.0355,0,0,0.0466,0.0465,0.0463,0.0437,0.0403,0.036,0.0345,0.0369,0.0394,0.0476,0.0517,0.0641,0.0608,0.0536,0.0491,0.0402,0.0328,0.0378,0.0436,0.0339,0.0329,0.0272,0.0258,0,0,0,0,0]}],[{"header":{"parameterUnit":"m.s-1","parameterCategory":2,"la1":30.2991,"la2":30.254,"lo1":-89.0895,"lo2":-89.0444,"dy":0.0017,"dx":0.0017,"nx":28,"ny":28,"refTime":"2024-08-31T21:00:00:Z","depth":"4","parameterNumber":2,"parameterNumberName":"U-component_of_CURRENTS"},"data":[0,0,0,0,0,0,0,0,0,0,0,0,0,0,0,0,0,0,0,0,0,0,0,0,0,0,0,0,0,0,0,0,0,0,0,0,0,0,0,0,0,0,0,0,0,0,0,0,0,0,0,0,0,0,0,0,0,0,-0.0305,-0.0304,0,-0.0301,-0.0301,-0.0301,-0.0304,-0.0304,-0.0304,-0.0304,-0.0303,-0.0303,-0.0303,0,0,0,0,0,0,0,0,0,0,0,0,0,-0.0318,-0.0318,-0.0305,-0.0304,-0.0304,-0.0301,-0.0301,-0.0301,-0.0304,-0.0304,-0.0304,-0.0304,-0.0303,-0.0303,-0.0303,0,0,0,0,0,0,0,0,0,0,0,0,0,-0.0313,-0.0318,-0.0305,-0.0305,-0.0305,-0.0301,-0.0301,-0.0301,-0.0304,-0.0304,-0.0304,-0.0305,-0.0303,-0.0303,-0.0303,-0.0299,0,0,-0.0302,-0.0302,0,0,0,0,0,0,0,0,-0.0314,-0.0313,-0.0305,-0.0305,-0.0305,-0.0303,-0.0306,-0.03,-0.0304,-0.0305,-0.0304,-0.0305,-0.0303,-0.0303,-0.0302,-0.0298,-0.0298,-0.0302,-0.0302,-0.0302,-0.0302,0,0,0,0,0,0,0,-0.0314,-0.0313,-0.0303,-0.0305,-0.0305,-0.0308,-0.0307,-0.0305,-0.0303,-0.0305,-0.0305,-0.0304,-0.0303,-0.0302,-0.0302,-0.0298,-0.0302,-0.0302,-0.0302,-0.0302,-0.0234,-0.0232,0,0,0,0,0,0,-0.0314,-0.0313,-0.0303,-0.0303,-0.031,-0.0307,-0.0307,-0.0304,-0.0303,-0.0303,-0.0304,-0.0304,-0.0303,-0.0303,-0.0302,-0.0259,-0.0302,-0.0302,-0.0302,-0.0235,-0.0233,-0.0231,0,0,0,0,0,0,-0.0314,-0.0313,-0.0304,-0.0308,-0.0307,-0.0307,-0.0304,-0.0304,-0.0308,-0.0303,-0.0303,-0.0309,-0.0303,-0.0303,-0.0302,-0.0261,-0.0302,-0.0302,-0.0237,-0.0235,-0.0232,-0.0197,0,0,0,0,0,0,-0.0314,-0.0313,-0.0321,-0.0308,-0.0307,-0.0308,-0.0303,-0.0303,-0.0307,-0.0308,-0.0307,-0.0307,-0.0303,-0.0303,-0.0302,-0.0261,-0.0302,-0.0239,-0.0236,-0.0233,-0.02,-0.0194,-0.0188,0,0,0,0,0,-0.0315,-0.0323,-0.0321,-0.0321,-0.0315,-0.0308,-0.0308,-0.0309,-0.0307,-0.0312,-0.0308,-0.0307,-0.028,-0.0303,-0.0302,-0.026,-0.0241,-0.0237,-0.0233,-0.0203,-0.0195,-0.0188,0,0,0,0,0,0,-0.0329,-0.0324,-0.0322,-0.0327,-0.0322,-0.0309,-0.0319,-0.0312,-0.0312,-0.0315,-0.0307,-0.0306,-0.0284,-0.028,-0.0304,-0.0227,-0.0251,-0.0247,-0.0229,-0.0221,-0.0215,-0.0192,-0.0301,0,0,0,0,0,-0.0336,-0.0349,-0.0333,-0.0341,-0.0338,-0.0328,-0.0329,-0.0325,-0.0318,-0.0319,-0.0315,-0.0296,-0.0265,-0.0255,-0.0242,-0.0215,-0.0206,-0.0179,-0.0173,-0.0167,-0.0146,-0.0105,-0.0093,-0.0219,-0.0219,-0.0219,0,0,-0.0345,-0.0345,-0.0351,-0.0347,-0.0344,-0.0335,-0.033,-0.0332,-0.0322,-0.0319,-0.0314,-0.0288,-0.0256,-0.0219,-0.0205,-0.0213,-0.013,-0.0163,-0.0158,-0.014,-0.0099,-0.0087,-0.0076,-0.0216,-0.0217,-0.0217,0,0,-0.0361,-0.0366,-0.0376,-0.037,-0.0366,-0.0355,-0.0354,-0.0341,-0.0337,-0.0326,-0.0301,-0.0257,-0.0237,-0.0188,-0.0161,-0.0114,-0.0105,-0.0095,-0.0039,0.0001,0.0011,0.0021,0.0029,0.0039,-0.0084,-0.0084,-0.0084,0,-0.0363,-0.0375,-0.0378,-0.0377,-0.037,-0.0361,-0.0353,-0.0345,-0.0333,-0.0314,-0.0325,-0.0226,-0.0215,-0.0119,-0.0089,-0.0099,-0.0081,-0.0075,0.0008,0.0018,0.0027,0.0033,0.0044,-0.0082,-0.0082,-0.0082,-0.0082,0,-0.0378,-0.0386,-0.0391,-0.0385,-0.0379,-0.0375,-0.0355,-0.0345,-0.0333,-0.0308,-0.0235,-0.0196,-0.0112,-0.0098,-0.0078,0.0025,0.0013,0.0001,-0.0015,0.0042,0.0044,0.0055,-0.0079,-0.0079,-0.008,-0.0081,0,0,-0.0353,-0.0393,-0.0389,-0.0389,-0.038,-0.0367,-0.0353,-0.0317,-0.0276,-0.0251,-0.0177,-0.0102,-0.0039,0.0,0.0053,0.0091,0.0159,0.0091,0.0092,0.0092,0.024,0.0181,0.0185,0.0171,0.0173,0.0175,0.0207,0,-0.035,-0.0372,-0.0381,-0.0372,-0.0371,-0.0353,-0.033,-0.0297,-0.0258,-0.019,-0.0118,-0.0024,-0.001,0.0074,0.0116,0.0159,0.0194,0.0151,0.0192,0.0193,0.0128,0.0198,0.0184,0.0215,0.0217,0.0219,0.022,0,-0.0332,-0.0356,-0.0371,-0.0359,-0.0351,-0.0333,-0.0269,-0.0239,-0.0152,-0.0106,0.0007,0.007,0.0193,0.0178,0.0279,0.026,0.0269,0.0269,0.027,0.0216,0.0155,0.0154,0.0239,0.0237,0.0236,0.0235,0.0234,0,-0.0312,-0.0322,-0.0343,-0.0342,-0.0338,-0.0314,-0.0277,-0.0208,-0.015,-0.0011,0.0062,0.0186,0.028,0.0322,0.0338,0.0338,0.0388,0.0379,0.0323,0.0317,0.0341,0.033,0.0434,0.0434,0.0434,0.0434,0.0434,0,-0.0292,-0.0292,-0.0331,-0.0341,-0.0314,-0.0289,-0.0213,-0.0161,-0.0045,0.0031,0.0145,0.0223,0.0325,0.036,0.0364,0.0371,0.0416,0.0355,0.0338,0.0351,0.0342,0.0346,0.0335,0.0435,0.0435,0.0435,0.0435,0,-0.0266,-0.0302,-0.0323,-0.0332,-0.0317,-0.0286,-0.0182,-0.0118,0.0,0.0112,0.0176,0.0286,0.034,0.0377,0.0419,0.0405,0.0405,0.0381,0.0374,0.0352,0.0304,0.0295,0.0372,0.0371,0.0369,0.0368,0.0368,0,-0.0252,-0.0273,-0.0325,-0.0328,-0.033,-0.0267,-0.0222,-0.0104,-0.0043,0.0116,0.0148,0.0261,0.0316,0.0329,0.0357,0.0372,0.0353,0.0362,0.0372,0.033,0.0306,0.0299,0.0291,0.0366,0.0365,0.0365,0.0365,0,-0.0227,-0.0271,-0.0315,-0.0341,-0.0319,-0.0267,-0.0198,-0.0147,-0.0019,0.0083,0.0154,0.0223,0.026,0.0293,0.0306,0.03,0.0377,0.035,0.0354,0.0363,0.0323,0.0298,0.0293,0.036,0.0361,0.0361,0.0362,0,-0.0206,-0.025,-0.0328,-0.0337,-0.0321,-0.0283,-0.0235,-0.0167,-0.0082,0.0072,0.0064,0.0161,0.0225,0.0249,0.0238,0.0261,0.0278,0.0283,0.029,0.0296,0.0258,0.0194,0.0201,0,0,0,0,0,-0.0161,-0.0235,-0.0289,-0.032,-0.0308,-0.0288,-0.0233,-0.0185,-0.009,-0.0048,0.0029,0.0059,0.0133,0.0154,0.0168,0.0203,0.0264,0.0218,0.0269,0.0337,0.0342,0.0305,0,0,0,0,0,0,-0.0149,-0.0219,-0.0305,-0.0299,-0.0299,-0.0264,-0.0237,-0.0177,-0.0158,-0.0066,-0.0047,0.0048,0.0089,0.0128,0.0166,0.0178,0.0207,0.027,0.0269,0.0334,0.0338,0.0342,0.0306,0,0,0,0,0]},{"header":{"parameterUnit":"m.s-1","parameterCategory":2,"la1":30.2991,"la2":30.254,"lo1":-89.0895,"lo2":-89.0444,"dy":0.0017,"dx":0.0017,"nx":28,"ny":28,"refTime":"2024-08-31T21:00:00:Z","depth":"4","parameterNumber":3,"parameterNumberName":"V-component_of_CURRENTS"},"data":[0,0,0,0,0,0,0,0,0,0,0,0,0,0,0,0,0,0,0,0,0,0,0,0,0,0,0,0,0,0,0,0,0,0,0,0,0,0,0,0,0,0,0,0,0,0,0,0,0,0,0,0,0,0,0,0,0,0,0.0493,0.0493,0,0.0517,0.0517,0.0517,0.0526,0.0526,0.0526,0.0525,0.0544,0.0544,0.0545,0,0,0,0,0,0,0,0,0,0,0,0,0,0.0441,0.0442,0.0493,0.0493,0.0494,0.0517,0.0517,0.0517,0.0526,0.0526,0.0526,0.0525,0.0544,0.0544,0.0545,0,0,0,0,0,0,0,0,0,0,0,0,0,0.0464,0.0442,0.0493,0.05,0.0501,0.0517,0.0517,0.0518,0.0526,0.0526,0.0525,0.0525,0.0543,0.0544,0.0545,0.0554,0,0,0.0548,0.0548,0,0,0,0,0,0,0,0,0.0463,0.0466,0.0499,0.05,0.0501,0.0518,0.0505,0.0529,0.0526,0.0517,0.0525,0.0525,0.0535,0.0536,0.0541,0.0554,0.0555,0.0548,0.0548,0.0549,0.0549,0,0,0,0,0,0,0,0.0461,0.0465,0.0503,0.0499,0.0501,0.0498,0.0501,0.051,0.0526,0.0517,0.0518,0.0521,0.0535,0.0541,0.0542,0.0555,0.0548,0.0549,0.0549,0.0549,0.0611,0.0613,0,0,0,0,0,0,0.0459,0.0464,0.0502,0.0503,0.0481,0.0499,0.0503,0.0513,0.0526,0.0528,0.0521,0.0521,0.0539,0.0541,0.0542,0.0585,0.0549,0.055,0.055,0.061,0.0612,0.0613,0,0,0,0,0,0,0.0458,0.0463,0.0501,0.0483,0.0488,0.05,0.0511,0.0513,0.0527,0.0529,0.0531,0.0533,0.0539,0.0541,0.0563,0.0584,0.055,0.0551,0.0609,0.0611,0.0612,0.0649,0,0,0,0,0,0,0.0457,0.0462,0.0473,0.0484,0.0489,0.0512,0.0512,0.0514,0.0528,0.0529,0.054,0.0541,0.0539,0.0562,0.0564,0.0585,0.0551,0.0608,0.061,0.0612,0.0646,0.0651,0.0656,0,0,0,0,0,0.0455,0.0462,0.0474,0.0479,0.0503,0.0513,0.0515,0.0523,0.0529,0.0535,0.0549,0.0541,0.0577,0.0563,0.0566,0.0587,0.0607,0.0609,0.0612,0.0644,0.065,0.0656,0,0,0,0,0,0,0.0441,0.0464,0.0477,0.0491,0.0505,0.0514,0.0519,0.053,0.0546,0.0549,0.0554,0.0556,0.0587,0.0582,0.0567,0.0612,0.0591,0.0594,0.0615,0.0621,0.0626,0.0627,0.0552,0,0,0,0,0,0.0445,0.0459,0.0479,0.049,0.0499,0.0514,0.0522,0.0529,0.0542,0.0549,0.0564,0.0578,0.0598,0.0604,0.0619,0.0639,0.0614,0.0656,0.0661,0.0665,0.0668,0.0622,0.0622,0.0621,0.0621,0.0621,0,0,0.0444,0.0456,0.0466,0.0489,0.05,0.0516,0.0518,0.053,0.0549,0.0548,0.0583,0.0599,0.0609,0.0638,0.065,0.0635,0.0659,0.0668,0.0671,0.0673,0.0624,0.0624,0.0624,0.0623,0.0623,0.0622,0,0,0.0442,0.0459,0.0474,0.0489,0.0509,0.0517,0.0524,0.0547,0.0564,0.0601,0.0607,0.0628,0.0667,0.0668,0.0677,0.0715,0.069,0.0732,0.0753,0.0708,0.0707,0.0705,0.0697,0.0694,0.0728,0.0728,0.0729,0,0.0442,0.0466,0.0477,0.0496,0.051,0.052,0.054,0.0558,0.0588,0.0612,0.0618,0.0678,0.0678,0.0706,0.0725,0.0724,0.0709,0.0728,0.0711,0.0709,0.0707,0.0699,0.0696,0.073,0.073,0.073,0.073,0,0.0455,0.0479,0.0485,0.0517,0.053,0.0545,0.057,0.0595,0.0624,0.065,0.0701,0.0709,0.0746,0.075,0.0753,0.0755,0.0755,0.0724,0.0691,0.0709,0.07,0.0696,0.0733,0.0733,0.0732,0.0732,0,0,0.045,0.049,0.0496,0.0523,0.0546,0.0563,0.0591,0.0631,0.0672,0.0702,0.0749,0.078,0.0798,0.0808,0.0809,0.077,0.0748,0.075,0.0747,0.0734,0.0679,0.0647,0.0639,0.0712,0.0711,0.071,0.0687,0,0.0464,0.0505,0.0517,0.056,0.0586,0.0605,0.0639,0.0674,0.0715,0.0762,0.0771,0.0827,0.0816,0.085,0.0808,0.0767,0.0737,0.076,0.0671,0.0669,0.0629,0.0632,0.0707,0.0683,0.0682,0.0682,0.0681,0,0.0482,0.0508,0.0552,0.0606,0.062,0.0652,0.0715,0.0757,0.0809,0.0849,0.0886,0.0894,0.0887,0.0861,0.0788,0.0808,0.0756,0.0708,0.0704,0.0655,0.0627,0.0656,0.0673,0.0674,0.0674,0.0675,0.0675,0,0.0483,0.0538,0.0576,0.0594,0.0648,0.0688,0.0738,0.0797,0.0859,0.0923,0.0957,0.0949,0.0958,0.0878,0.0798,0.0796,0.0693,0.0668,0.0592,0.0591,0.0611,0.0612,0.06,0.06,0.06,0.06,0.06,0,0.0494,0.0528,0.0595,0.0617,0.0683,0.0732,0.0833,0.087,0.096,0.1008,0.1023,0.1022,0.0956,0.0888,0.0807,0.0694,0.07,0.06,0.0573,0.0633,0.0637,0.061,0.0611,0.0599,0.0599,0.0599,0.06,0,0.048,0.0523,0.0569,0.0646,0.0684,0.0745,0.0899,0.0967,0.1053,0.1105,0.1126,0.1094,0.0997,0.0918,0.0785,0.0712,0.0602,0.0559,0.0662,0.0641,0.0536,0.054,0.0477,0.0476,0.0474,0.0473,0.0472,0,0.0475,0.0499,0.0582,0.0633,0.0678,0.0804,0.0879,0.1003,0.1054,0.1114,0.109,0.1055,0.1004,0.0795,0.0724,0.0592,0.0558,0.0529,0.0505,0.0538,0.0519,0.0525,0.053,0.047,0.047,0.0469,0.0469,0,0.0453,0.0482,0.0517,0.0613,0.07,0.0808,0.0914,0.0936,0.1036,0.1123,0.1033,0.0966,0.0856,0.0732,0.0655,0.0548,0.056,0.0514,0.0516,0.0494,0.0529,0.0512,0.0519,0.0464,0.0465,0.0465,0.0466,0,0.0434,0.0448,0.0501,0.0589,0.0691,0.0748,0.0822,0.0857,0.0919,0.095,0.0911,0.0844,0.084,0.0708,0.0616,0.0537,0.0503,0.0462,0.0466,0.047,0.0473,0.0517,0.0423,0,0,0,0,0,0.0417,0.043,0.049,0.057,0.0668,0.0728,0.0804,0.0865,0.092,0.0831,0.0882,0.0772,0.066,0.062,0.0523,0.0586,0.0496,0.0471,0.045,0.0439,0.0444,0.0444,0,0,0,0,0,0,0.0409,0.0438,0.0459,0.0539,0.0597,0.0692,0.0722,0.0758,0.0706,0.0751,0.0672,0.0745,0.0619,0.0711,0.052,0.0509,0.0478,0.0461,0.0458,0.0435,0.044,0.0445,0.0446,0,0,0,0,0]}]]